Time,TemperatureF,DewpointF,PressureIn,WindDirection,WindDirectionDegrees,WindSpeedMPH,WindSpeedGustMPH,Humidity,HourlyPrecipIn,Conditions,Clouds,dailyrainin,SolarRadiationWatts/m^2,SoftwareType,DateUTC
2013-01-03 00:00:00,22.9,18.5,30.31,West,277,3.0,3.0,83,0.00,,---,0.00,0.00,VWS V14.01,2013-01-03 06:00:00,
2013-01-03 00:03:00,25.4,21.0,30.31,West,277,1.0,3.0,83,0.00,,---,0.00,0.00,VWS V14.01,2013-01-03 06:03:00,
2013-01-03 00:08:00,25.1,20.7,30.31,West,277,2.0,3.0,83,0.00,,---,0.00,0.00,VWS V14.01,2013-01-03 06:08:00,
2013-01-03 00:13:00,24.8,20.4,30.31,West,277,3.0,3.0,83,0.00,,---,0.00,0.00,VWS V14.01,2013-01-03 06:13:00,
2013-01-03 00:18:00,24.5,20.1,30.31,West,277,2.0,3.0,83,0.00,,---,0.00,0.00,VWS V14.01,2013-01-03 06:18:00,
2013-01-03 00:23:00,24.4,20.3,30.31,West,277,1.0,3.0,84,0.00,,---,0.00,0.00,VWS V14.01,2013-01-03 06:23:00,
2013-01-03 00:28:00,24.4,20.3,30.31,West,277,3.0,3.0,84,0.00,,---,0.00,0.00,VWS V14.01,2013-01-03 06:28:00,
2013-01-03 00:30:00,21.6,17.2,30.32,WNW,285,1.0,5.0,83,0.00,,---,0.00,0.00,VWS V14.01,2013-01-03 06:30:00,
2013-01-03 00:33:00,24.2,20.1,30.31,West,277,1.0,3.0,84,0.00,,---,0.00,0.00,VWS V14.01,2013-01-03 06:33:00,
2013-01-03 00:38:00,24.2,19.8,30.31,West,277,1.0,3.0,83,0.00,,---,0.00,0.00,VWS V14.01,2013-01-03 06:38:00,
2013-01-03 00:43:00,24.1,19.7,30.31,West,277,2.0,3.0,83,0.00,,---,0.00,0.00,VWS V14.01,2013-01-03 06:43:00,
2013-01-03 00:48:00,23.8,19.4,30.31,West,277,2.0,3.0,83,0.00,,---,0.00,0.00,VWS V14.01,2013-01-03 06:48:00,
2013-01-03 00:53:00,23.5,18.8,30.31,West,277,1.0,3.0,82,0.00,,---,0.00,0.00,VWS V14.01,2013-01-03 06:53:00,
2013-01-03 00:58:00,23.0,18.6,30.31,West,277,2.0,3.0,83,0.00,,---,0.00,0.00,VWS V14.01,2013-01-03 06:58:00,
2013-01-03 01:00:00,19.4,15.1,30.33,South,183,0.0,3.0,83,0.00,,---,0.00,0.00,VWS V14.01,2013-01-03 07:00:00,
2013-01-03 01:03:00,22.9,18.5,30.31,West,277,3.0,3.0,83,0.00,,---,0.00,0.00,VWS V14.01,2013-01-03 07:03:00,
2013-01-03 01:09:00,22.7,18.9,30.32,West,277,0.0,3.0,85,0.00,,---,0.00,0.00,VWS V14.01,2013-01-03 07:09:00,
2013-01-03 01:14:00,22.5,18.7,30.32,West,277,1.0,3.0,85,0.00,,---,0.00,0.00,VWS V14.01,2013-01-03 07:14:00,
2013-01-03 01:19:00,22.1,18.0,30.32,West,277,2.0,3.0,84,0.00,,---,0.00,0.00,VWS V14.01,2013-01-03 07:19:00,
2013-01-03 01:24:00,21.6,17.2,30.32,WNW,285,1.0,5.0,83,0.00,,---,0.00,0.00,VWS V14.01,2013-01-03 07:24:00,
2013-01-03 01:29:00,21.6,17.2,30.32,WNW,285,1.0,5.0,83,0.00,,---,0.00,0.00,VWS V14.01,2013-01-03 07:29:00,
2013-01-03 01:30:00,19.9,15.9,30.33,South,183,0.0,2.0,84,0.00,,---,0.00,0.00,VWS V14.01,2013-01-03 07:30:00,
2013-01-03 01:34:00,21.6,17.2,30.31,WNW,285,0.0,2.0,83,0.00,,---,0.00,0.00,VWS V14.01,2013-01-03 07:34:00,
2013-01-03 01:39:00,21.3,16.7,30.31,WNW,285,0.0,2.0,82,0.00,,---,0.00,0.00,VWS V14.01,2013-01-03 07:39:00,
2013-01-03 01:44:00,20.6,15.7,30.31,South,183,3.0,3.0,81,0.00,,---,0.00,0.00,VWS V14.01,2013-01-03 07:44:00,
2013-01-03 01:49:00,19.5,14.6,30.31,South,183,1.0,3.0,81,0.00,,---,0.00,0.00,VWS V14.01,2013-01-03 07:49:00,
2013-01-03 01:54:00,19.2,14.6,30.33,South,183,0.0,3.0,82,0.00,,---,0.00,0.00,VWS V14.01,2013-01-03 07:54:00,
2013-01-03 01:59:00,19.4,15.1,30.33,South,183,0.0,3.0,83,0.00,,---,0.00,0.00,VWS V14.01,2013-01-03 07:59:00,
2013-01-03 02:00:00,20.6,16.8,30.34,West,275,2.0,5.0,85,0.00,,---,0.00,0.00,VWS V14.01,2013-01-03 08:00:00,
2013-01-03 02:04:00,19.4,15.4,30.33,South,183,0.0,0.0,84,0.00,,---,0.00,0.00,VWS V14.01,2013-01-03 08:04:00,
2013-01-03 02:09:00,19.2,15.2,30.33,South,183,0.0,2.0,84,0.00,,---,0.00,0.00,VWS V14.01,2013-01-03 08:09:00,
2013-01-03 02:14:00,19.5,15.5,30.33,South,183,0.0,2.0,84,0.00,,---,0.00,0.00,VWS V14.01,2013-01-03 08:14:00,
2013-01-03 02:19:00,19.9,16.1,30.33,South,183,0.0,2.0,85,0.00,,---,0.00,0.00,VWS V14.01,2013-01-03 08:19:00,
2013-01-03 02:24:00,19.9,16.1,30.33,South,183,0.0,2.0,85,0.00,,---,0.00,0.00,VWS V14.01,2013-01-03 08:24:00,
2013-01-03 02:29:00,19.9,15.9,30.33,South,183,0.0,2.0,84,0.00,,---,0.00,0.00,VWS V14.01,2013-01-03 08:29:00,
2013-01-03 02:30:00,20.0,15.9,30.34,West,275,3.0,4.0,84,0.00,,---,0.00,0.00,VWS V14.01,2013-01-03 08:30:00,
2013-01-03 02:34:00,19.7,15.7,30.33,South,183,0.0,1.0,84,0.00,,---,0.00,0.00,VWS V14.01,2013-01-03 08:34:00,
2013-01-03 02:39:00,20.2,16.4,30.33,South,183,0.0,2.0,85,0.00,,---,0.00,0.00,VWS V14.01,2013-01-03 08:39:00,
2013-01-03 02:44:00,20.0,15.9,30.34,South,183,1.0,2.0,84,0.00,,---,0.00,0.00,VWS V14.01,2013-01-03 08:44:00,
2013-01-03 02:49:00,19.5,15.2,30.34,South,183,0.0,2.0,83,0.00,,---,0.00,0.00,VWS V14.01,2013-01-03 08:49:00,
2013-01-03 02:54:00,19.5,15.5,30.34,South,184,2.0,3.0,84,0.00,,---,0.00,0.00,VWS V14.01,2013-01-03 08:54:00,
2013-01-03 02:59:00,20.5,16.7,30.34,West,275,1.0,5.0,85,0.00,,---,0.00,0.00,VWS V14.01,2013-01-03 08:59:00,
2013-01-03 03:00:00,21.3,16.7,30.34,West,275,3.0,3.0,82,0.00,,---,0.00,0.00,VWS V14.01,2013-01-03 09:00:00,
2013-01-03 03:04:00,21.0,17.2,30.34,West,275,1.0,4.0,85,0.00,,---,0.00,0.00,VWS V14.01,2013-01-03 09:04:00,
2013-01-03 03:09:00,20.6,16.5,30.34,West,275,0.0,4.0,84,0.00,,---,0.00,0.00,VWS V14.01,2013-01-03 09:09:00,
2013-01-03 03:14:00,20.0,15.1,30.34,West,275,0.0,4.0,81,0.00,,---,0.00,0.00,VWS V14.01,2013-01-03 09:14:00,
2013-01-03 03:19:00,19.4,14.5,30.34,West,275,0.0,4.0,81,0.00,,---,0.00,0.00,VWS V14.01,2013-01-03 09:19:00,
2013-01-03 03:24:00,19.2,14.3,30.34,West,275,2.0,4.0,81,0.00,,---,0.00,0.00,VWS V14.01,2013-01-03 09:24:00,
2013-01-03 03:29:00,20.0,15.9,30.34,West,275,2.0,4.0,84,0.00,,---,0.00,0.00,VWS V14.01,2013-01-03 09:29:00,
2013-01-03 03:30:00,21.3,16.7,30.35,WNW,290,5.0,6.0,82,0.00,,---,0.00,0.00,VWS V14.01,2013-01-03 09:30:00,
2013-01-03 03:34:00,20.5,16.4,30.34,West,275,1.0,3.0,84,0.00,,---,0.00,0.00,VWS V14.01,2013-01-03 09:34:00,
2013-01-03 03:39:00,21.0,16.9,30.34,West,275,3.0,3.0,84,0.00,,---,0.00,0.00,VWS V14.01,2013-01-03 09:39:00,
2013-01-03 03:44:00,21.1,16.8,30.34,West,275,1.0,3.0,83,0.00,,---,0.00,0.00,VWS V14.01,2013-01-03 09:44:00,
2013-01-03 03:49:00,21.1,16.5,30.34,West,275,1.0,3.0,82,0.00,,---,0.00,0.00,VWS V14.01,2013-01-03 09:49:00,
2013-01-03 03:54:00,21.1,16.5,30.34,West,275,2.0,3.0,82,0.00,,---,0.00,0.00,VWS V14.01,2013-01-03 09:54:00,
2013-01-03 03:59:00,21.1,16.5,30.34,West,275,3.0,3.0,82,0.00,,---,0.00,0.00,VWS V14.01,2013-01-03 09:59:00,
2013-01-03 04:00:00,23.9,18.9,30.35,NW,312,3.0,7.0,81,0.00,,---,0.00,0.00,VWS V14.01,2013-01-03 10:00:00,
2013-01-03 04:04:00,21.8,17.2,30.34,West,275,3.0,3.0,82,0.00,,---,0.00,0.00,VWS V14.01,2013-01-03 10:04:00,
2013-01-03 04:09:00,21.9,17.0,30.34,West,275,2.0,4.0,81,0.00,,---,0.00,0.00,VWS V14.01,2013-01-03 10:09:00,
2013-01-03 04:14:00,21.8,16.9,30.34,West,275,3.0,4.0,81,0.00,,---,0.00,0.00,VWS V14.01,2013-01-03 10:14:00,
2013-01-03 04:19:00,21.8,16.9,30.35,West,275,3.0,4.0,81,0.00,,---,0.00,0.00,VWS V14.01,2013-01-03 10:19:00,
2013-01-03 04:24:00,21.6,17.0,30.35,West,276,3.0,5.0,82,0.00,,---,0.00,0.00,VWS V14.01,2013-01-03 10:24:00,
2013-01-03 04:29:00,21.4,16.8,30.35,West,281,4.0,6.0,82,0.00,,---,0.00,0.00,VWS V14.01,2013-01-03 10:29:00,
2013-01-03 04:30:00,26.1,19.3,30.36,NW,313,3.0,12.0,75,0.00,,---,0.00,0.00,VWS V14.01,2013-01-03 10:30:00,
2013-01-03 04:34:00,21.4,16.8,30.35,WNW,298,3.0,6.0,82,0.00,,---,0.00,0.00,VWS V14.01,2013-01-03 10:34:00,
2013-01-03 04:39:00,22.1,17.5,30.35,WNW,295,2.0,6.0,82,0.00,,---,0.00,0.00,VWS V14.01,2013-01-03 10:39:00,
2013-01-03 04:44:00,22.4,17.8,30.35,WNW,296,3.0,6.0,82,0.00,,---,0.00,0.00,VWS V14.01,2013-01-03 10:44:00,
2013-01-03 04:49:00,22.9,18.2,30.35,WNW,295,5.0,6.0,82,0.00,,---,0.00,0.00,VWS V14.01,2013-01-03 10:49:00,
2013-01-03 04:54:00,23.3,18.3,30.35,WNW,296,4.0,6.0,81,0.00,,---,0.00,0.00,VWS V14.01,2013-01-03 10:54:00,
2013-01-03 04:59:00,23.9,18.9,30.35,WNW,302,4.0,7.0,81,0.00,,---,0.00,0.00,VWS V14.01,2013-01-03 10:59:00,
2013-01-03 05:00:00,26.9,19.4,30.37,NW,315,6.0,13.0,73,0.00,,---,0.00,0.00,VWS V14.01,2013-01-03 11:00:00,
2013-01-03 05:04:00,24.4,19.1,30.35,WNW,300,3.0,8.0,80,0.00,,---,0.00,0.00,VWS V14.01,2013-01-03 11:04:00,
2013-01-03 05:09:00,24.8,19.2,30.35,NW,321,3.0,9.0,79,0.00,,---,0.00,0.00,VWS V14.01,2013-01-03 11:09:00,
2013-01-03 05:14:00,25.3,19.7,30.36,NW,320,6.0,9.0,79,0.00,,---,0.00,0.00,VWS V14.01,2013-01-03 11:14:00,
2013-01-03 05:19:00,25.7,19.5,30.36,NW,322,4.0,12.0,77,0.00,,---,0.00,0.00,VWS V14.01,2013-01-03 11:19:00,
2013-01-03 05:24:00,26.0,19.5,30.36,NW,304,5.0,12.0,76,0.00,,---,0.00,0.00,VWS V14.01,2013-01-03 11:24:00,
2013-01-03 05:29:00,26.1,19.3,30.36,NW,313,2.0,12.0,75,0.00,,---,0.00,0.00,VWS V14.01,2013-01-03 11:29:00,
2013-01-03 05:30:00,26.7,18.9,30.37,North,355,6.0,11.0,72,0.00,,---,0.00,0.00,VWS V14.01,2013-01-03 11:30:00,
2013-01-03 05:35:00,26.3,19.5,30.37,NW,304,5.0,7.0,75,0.00,,---,0.00,0.00,VWS V14.01,2013-01-03 11:35:00,
2013-01-03 05:40:00,26.4,19.2,30.37,NW,320,4.0,13.0,74,0.00,,---,0.00,0.00,VWS V14.01,2013-01-03 11:40:00,
2013-01-03 05:45:00,26.7,19.5,30.37,NNW,337,4.0,13.0,74,0.00,,---,0.00,0.00,VWS V14.01,2013-01-03 11:45:00,
2013-01-03 05:50:00,26.7,19.5,30.37,NNW,333,5.0,13.0,74,0.00,,---,0.00,0.00,VWS V14.01,2013-01-03 11:50:00,
2013-01-03 05:55:00,26.9,19.4,30.37,NW,314,4.0,13.0,73,0.00,,---,0.00,0.00,VWS V14.01,2013-01-03 11:55:00,
2013-01-03 06:00:00,26.9,19.4,30.37,NW,322,8.0,13.0,73,0.00,,---,0.00,0.00,VWS V14.01,2013-01-03 12:00:00,
2013-01-03 06:05:00,26.9,19.4,30.37,NNW,338,5.0,9.0,73,0.00,,---,0.00,0.00,VWS V14.01,2013-01-03 12:05:00,
2013-01-03 06:10:00,26.9,19.4,30.37,NNW,329,9.0,11.0,73,0.00,,---,0.00,0.00,VWS V14.01,2013-01-03 12:10:00,
2013-01-03 06:15:00,26.9,19.4,30.37,North,350,1.0,11.0,73,0.00,,---,0.00,0.00,VWS V14.01,2013-01-03 12:15:00,
2013-01-03 06:20:00,26.9,19.1,30.37,NNW,334,8.0,11.0,72,0.00,,---,0.00,0.00,VWS V14.01,2013-01-03 12:20:00,
2013-01-03 06:25:00,26.9,19.1,30.37,NW,320,3.0,11.0,72,0.00,,---,0.00,0.00,VWS V14.01,2013-01-03 12:25:00,
2013-01-03 06:30:00,26.7,18.9,30.37,North,349,7.0,11.0,72,0.00,,---,0.00,0.00,VWS V14.01,2013-01-03 12:30:00,
2013-01-03 06:35:00,26.7,18.9,30.37,NW,317,3.0,11.0,72,0.00,,---,0.00,0.00,VWS V14.01,2013-01-03 12:35:00,
2013-01-03 06:40:00,26.7,18.9,30.38,NNW,337,6.0,11.0,72,0.00,,---,0.00,0.00,VWS V14.01,2013-01-03 12:40:00,
2013-01-03 06:45:00,26.9,19.1,30.38,NW,306,4.0,11.0,72,0.00,,---,0.00,0.00,VWS V14.01,2013-01-03 12:45:00,
2013-01-03 06:50:00,26.9,19.1,30.38,WNW,293,7.0,11.0,72,0.00,,---,0.00,0.00,VWS V14.01,2013-01-03 12:50:00,
2013-01-03 06:55:00,26.9,19.1,30.39,NW,305,7.0,11.0,72,0.00,,---,0.00,0.00,VWS V14.01,2013-01-03 12:55:00,
2013-01-03 07:00:00,26.9,18.8,30.39,WNW,292,4.0,4.0,71,0.00,,---,0.00,0.00,VWS V14.01,2013-01-03 13:00:00,
2013-01-03 07:05:00,26.7,18.9,30.39,WNW,296,5.0,7.0,72,0.00,,---,0.00,0.00,VWS V14.01,2013-01-03 13:05:00,
2013-01-03 07:10:00,26.7,18.9,30.39,NW,304,4.0,7.0,72,0.00,,---,0.00,0.00,VWS V14.01,2013-01-03 13:10:00,
2013-01-03 07:15:00,26.6,18.8,30.39,NW,304,4.0,7.0,72,0.00,,---,0.00,0.00,VWS V14.01,2013-01-03 13:15:00,
2013-01-03 07:20:00,26.4,18.6,30.40,NW,313,7.0,8.0,72,0.00,,---,0.00,0.00,VWS V14.01,2013-01-03 13:20:00,
2013-01-03 07:25:00,26.4,18.6,30.40,NW,312,3.0,8.0,72,0.00,,---,0.00,0.00,VWS V14.01,2013-01-03 13:25:00,
2013-01-03 07:30:00,26.4,18.6,30.40,NW,312,3.0,3.0,72,0.00,,---,0.00,0.00,VWS V14.01,2013-01-03 13:30:00,
2013-01-03 07:35:00,26.4,18.6,30.40,NW,305,3.0,5.0,72,0.00,,---,0.00,0.00,VWS V14.01,2013-01-03 13:35:00,
2013-01-03 07:40:00,26.4,18.6,30.40,NW,305,2.0,5.0,72,0.00,,---,0.00,0.00,VWS V14.01,2013-01-03 13:40:00,
2013-01-03 07:45:00,26.3,18.5,30.41,WNW,290,4.0,5.0,72,0.00,,---,0.00,0.00,VWS V14.01,2013-01-03 13:45:00,
2013-01-03 07:50:00,26.3,18.5,30.41,WNW,288,3.0,5.0,72,0.00,,---,0.00,0.00,VWS V14.01,2013-01-03 13:50:00,
2013-01-03 07:55:00,26.3,18.5,30.41,WNW,287,2.0,5.0,72,0.00,,---,0.00,5.00,VWS V14.01,2013-01-03 13:55:00,
2013-01-03 08:00:00,26.1,18.3,30.41,WNW,287,2.0,3.0,72,0.00,,---,0.00,9.00,VWS V14.01,2013-01-03 14:00:00,
2013-01-03 08:05:00,26.1,18.3,30.41,WNW,303,2.0,6.0,72,0.00,,---,0.00,12.00,VWS V14.01,2013-01-03 14:05:00,
2013-01-03 08:10:00,26.0,18.2,30.41,WNW,298,4.0,6.0,72,0.00,,---,0.00,18.00,VWS V14.01,2013-01-03 14:10:00,
2013-01-03 08:15:00,26.0,18.5,30.41,WNW,296,3.0,6.0,73,0.00,,---,0.00,19.00,VWS V14.01,2013-01-03 14:15:00,
2013-01-03 08:20:00,26.0,18.5,30.42,WNW,282,4.0,6.0,73,0.00,,---,0.00,28.00,VWS V14.01,2013-01-03 14:20:00,
2013-01-03 08:25:00,26.0,18.2,30.42,WNW,293,4.0,7.0,72,0.00,,---,0.00,32.00,VWS V14.01,2013-01-03 14:25:00,
2013-01-03 08:30:00,26.0,18.5,30.42,WNW,295,5.0,5.0,73,0.00,,---,0.00,33.00,VWS V14.01,2013-01-03 14:30:00,
2013-01-03 08:35:00,25.8,18.0,30.42,WNW,290,3.0,7.0,72,0.00,,---,0.00,39.00,VWS V14.01,2013-01-03 14:35:00,
2013-01-03 08:40:00,25.8,18.0,30.42,West,267,8.0,8.0,72,0.00,,---,0.00,46.00,VWS V14.01,2013-01-03 14:40:00,
2013-01-03 08:45:00,25.7,17.9,30.43,NW,319,4.0,8.0,72,0.00,,---,0.00,58.00,VWS V14.01,2013-01-03 14:45:00,
2013-01-03 08:50:00,25.6,17.8,30.43,WNW,292,6.0,8.0,72,0.00,,---,0.00,53.00,VWS V14.01,2013-01-03 14:50:00,
2013-01-03 08:55:00,25.4,17.6,30.43,NW,325,6.0,8.0,72,0.00,,---,0.00,47.00,VWS V14.01,2013-01-03 14:55:00,
2013-01-03 09:00:00,25.3,17.5,30.43,NW,305,3.0,6.0,72,0.00,,---,0.00,42.00,VWS V14.01,2013-01-03 15:00:00,
2013-01-03 09:05:00,25.1,17.4,30.43,NW,322,8.0,8.0,72,0.00,,---,0.00,60.00,VWS V14.01,2013-01-03 15:05:00,
2013-01-03 09:10:00,25.1,17.4,30.43,NW,306,6.0,9.0,72,0.00,,---,0.00,207.00,VWS V14.01,2013-01-03 15:10:00,
2013-01-03 09:15:00,25.1,17.4,30.44,NW,306,7.0,9.0,72,0.00,,---,0.00,221.00,VWS V14.01,2013-01-03 15:15:00,
2013-01-03 09:20:00,25.3,17.2,30.44,WNW,296,8.0,9.0,71,0.00,,---,0.00,232.00,VWS V14.01,2013-01-03 15:20:00,
2013-01-03 09:25:00,25.3,17.2,30.44,WNW,302,6.0,10.0,71,0.00,,---,0.00,239.00,VWS V14.01,2013-01-03 15:25:00,
2013-01-03 09:30:00,25.3,16.9,30.44,WNW,298,5.0,8.0,70,0.00,,---,0.00,39.00,VWS V14.01,2013-01-03 15:30:00,
2013-01-03 09:35:00,25.3,16.9,30.44,WNW,294,7.0,10.0,70,0.00,,---,0.00,40.00,VWS V14.01,2013-01-03 15:35:00,
2013-01-03 09:40:00,25.3,16.9,30.45,NW,304,5.0,11.0,70,0.00,,---,0.00,44.00,VWS V14.01,2013-01-03 15:40:00,
2013-01-03 09:45:00,25.4,17.0,30.45,NW,307,5.0,11.0,70,0.00,,---,0.00,44.00,VWS V14.01,2013-01-03 15:45:00,
2013-01-03 09:50:00,25.6,17.2,30.45,NNW,332,7.0,11.0,70,0.00,,---,0.00,174.00,VWS V14.01,2013-01-03 15:50:00,
2013-01-03 09:55:00,25.7,17.0,30.45,WNW,286,7.0,11.0,69,0.00,,---,0.00,49.00,VWS V14.01,2013-01-03 15:55:00,
2013-01-03 10:00:00,30.0,20.0,30.46,NW,318,8.0,13.0,66,0.00,,---,0.00,287.00,VWS V14.01,2013-01-03 16:00:00,
2013-01-03 10:01:00,25.8,16.7,30.45,NW,313,8.0,8.0,68,0.00,,---,0.00,49.00,VWS V14.01,2013-01-03 16:01:00,
2013-01-03 10:06:00,26.0,16.9,30.46,WNW,296,6.0,9.0,68,0.00,,---,0.00,49.00,VWS V14.01,2013-01-03 16:06:00,
2013-01-03 10:11:00,26.3,17.2,30.46,NW,307,3.0,10.0,68,0.00,,---,0.00,51.00,VWS V14.01,2013-01-03 16:11:00,
2013-01-03 10:16:00,26.7,17.6,30.46,West,279,6.0,10.0,68,0.00,,---,0.00,183.00,VWS V14.01,2013-01-03 16:16:00,
2013-01-03 10:21:00,27.2,17.7,30.46,NW,308,3.0,10.0,67,0.00,,---,0.00,56.00,VWS V14.01,2013-01-03 16:21:00,
2013-01-03 10:26:00,27.3,17.5,30.46,WNW,302,10.0,10.0,66,0.00,,---,0.00,83.00,VWS V14.01,2013-01-03 16:26:00,
2013-01-03 10:30:00,29.1,20.2,30.45,NNW,332,7.0,11.0,69,0.00,,---,0.00,158.00,VWS V14.01,2013-01-03 16:30:00,
2013-01-03 10:31:00,27.6,17.7,30.46,WNW,286,7.0,8.0,66,0.00,,---,0.00,77.00,VWS V14.01,2013-01-03 16:31:00,
2013-01-03 10:36:00,27.9,18.0,30.46,NW,323,6.0,10.0,66,0.00,,---,0.00,125.00,VWS V14.01,2013-01-03 16:36:00,
2013-01-03 10:41:00,28.2,18.0,30.46,NW,318,4.0,10.0,65,0.00,,---,0.00,455.00,VWS V14.01,2013-01-03 16:41:00,
2013-01-03 10:46:00,29.0,18.7,30.46,WNW,296,2.0,10.0,65,0.00,,---,0.00,541.00,VWS V14.01,2013-01-03 16:46:00,
2013-01-03 10:51:00,29.5,19.2,30.47,WNW,285,5.0,10.0,65,0.00,,---,0.00,552.00,VWS V14.01,2013-01-03 16:51:00,
2013-01-03 10:56:00,30.1,19.8,30.46,WNW,289,11.0,11.0,65,0.00,,---,0.00,401.00,VWS V14.01,2013-01-03 16:56:00,
2013-01-03 11:00:00,28.5,20.3,30.44,NW,306,7.0,12.0,71,0.00,,---,0.00,151.00,VWS V14.01,2013-01-03 17:00:00,
2013-01-03 11:01:00,30.0,20.4,30.46,WNW,290,6.0,10.0,67,0.00,,---,0.00,269.00,VWS V14.01,2013-01-03 17:01:00,
2013-01-03 11:06:00,29.7,20.5,30.47,WNW,298,5.0,11.0,68,0.00,,---,0.00,246.00,VWS V14.01,2013-01-03 17:06:00,
2013-01-03 11:11:00,29.4,20.2,30.46,NW,326,7.0,11.0,68,0.00,,---,0.00,220.00,VWS V14.01,2013-01-03 17:11:00,
2013-01-03 11:16:00,29.4,20.5,30.46,NW,313,8.0,11.0,69,0.00,,---,0.00,218.00,VWS V14.01,2013-01-03 17:16:00,
2013-01-03 11:21:00,29.4,20.5,30.46,WNW,288,5.0,11.0,69,0.00,,---,0.00,190.00,VWS V14.01,2013-01-03 17:21:00,
2013-01-03 11:26:00,29.1,20.2,30.45,NNW,338,6.0,11.0,69,0.00,,---,0.00,167.00,VWS V14.01,2013-01-03 17:26:00,
2013-01-03 11:30:00,28.2,20.4,30.43,NNW,332,6.0,13.0,72,0.00,,---,0.00,167.00,VWS V14.01,2013-01-03 17:30:00,
2013-01-03 11:31:00,29.1,20.2,30.45,North,349,10.0,12.0,69,0.00,,---,0.00,158.00,VWS V14.01,2013-01-03 17:31:00,
2013-01-03 11:36:00,28.7,20.2,30.45,NW,311,7.0,12.0,70,0.00,,---,0.00,158.00,VWS V14.01,2013-01-03 17:36:00,
2013-01-03 11:41:00,28.7,20.2,30.45,WNW,296,5.0,12.0,70,0.00,,---,0.00,158.00,VWS V14.01,2013-01-03 17:41:00,
2013-01-03 11:46:00,28.7,20.2,30.44,NNW,340,3.0,12.0,70,0.00,,---,0.00,155.00,VWS V14.01,2013-01-03 17:46:00,
2013-01-03 11:51:00,29.0,20.5,30.44,NW,313,5.0,12.0,70,0.00,,---,0.00,156.00,VWS V14.01,2013-01-03 17:51:00,
2013-01-03 11:56:00,28.7,20.2,30.44,NW,315,3.0,12.0,70,0.00,,---,0.00,155.00,VWS V14.01,2013-01-03 17:56:00,
2013-01-03 12:00:00,28.8,20.6,30.41,WNW,302,9.0,11.0,71,0.00,,---,0.00,181.00,VWS V14.01,2013-01-03 18:00:00,
2013-01-03 12:01:00,28.5,20.0,30.43,NW,315,8.0,9.0,70,0.00,,---,0.00,151.00,VWS V14.01,2013-01-03 18:01:00,
2013-01-03 12:06:00,28.4,20.2,30.43,NW,314,9.0,11.0,71,0.00,,---,0.00,151.00,VWS V14.01,2013-01-03 18:06:00,
2013-01-03 12:11:00,28.1,19.9,30.43,WNW,298,6.0,11.0,71,0.00,,---,0.00,153.00,VWS V14.01,2013-01-03 18:11:00,
2013-01-03 12:16:00,28.2,20.4,30.43,NW,324,5.0,11.0,72,0.00,,---,0.00,158.00,VWS V14.01,2013-01-03 18:16:00,
2013-01-03 12:21:00,28.1,20.2,30.43,NNW,341,6.0,13.0,72,0.00,,---,0.00,160.00,VWS V14.01,2013-01-03 18:21:00,
2013-01-03 12:26:00,28.2,20.4,30.43,NNW,327,5.0,13.0,72,0.00,,---,0.00,162.00,VWS V14.01,2013-01-03 18:26:00,
2013-01-03 12:30:00,29.3,21.1,30.40,NW,323,6.0,12.0,71,0.00,,---,0.00,202.00,VWS V14.01,2013-01-03 18:30:00,
2013-01-03 12:31:00,28.2,20.4,30.43,WNW,297,8.0,10.0,72,0.00,,---,0.00,169.00,VWS V14.01,2013-01-03 18:31:00,
2013-01-03 12:36:00,28.4,20.5,30.42,WNW,294,5.0,10.0,72,0.00,,---,0.00,178.00,VWS V14.01,2013-01-03 18:36:00,
2013-01-03 12:41:00,28.4,20.2,30.42,NW,307,8.0,10.0,71,0.00,,---,0.00,181.00,VWS V14.01,2013-01-03 18:41:00,
2013-01-03 12:46:00,28.4,20.5,30.42,NW,323,6.0,10.0,72,0.00,,---,0.00,188.00,VWS V14.01,2013-01-03 18:46:00,
2013-01-03 12:51:00,28.7,20.8,30.42,WNW,298,5.0,10.0,72,0.00,,---,0.00,193.00,VWS V14.01,2013-01-03 18:51:00,
2013-01-03 12:56:00,28.8,20.6,30.41,West,270,3.0,10.0,71,0.00,,---,0.00,185.00,VWS V14.01,2013-01-03 18:56:00,
2013-01-03 13:00:00,29.7,21.5,30.40,NW,309,7.0,10.0,71,0.00,,---,0.00,185.00,VWS V14.01,2013-01-03 19:00:00,
2013-01-03 13:01:00,28.8,20.6,30.41,NW,325,6.0,10.0,71,0.00,,---,0.00,178.00,VWS V14.01,2013-01-03 19:01:00,
2013-01-03 13:06:00,28.8,20.9,30.41,WNW,296,7.0,10.0,72,0.00,,---,0.00,176.00,VWS V14.01,2013-01-03 19:06:00,
2013-01-03 13:11:00,29.0,20.8,30.41,NW,304,5.0,10.0,71,0.00,,---,0.00,179.00,VWS V14.01,2013-01-03 19:11:00,
2013-01-03 13:16:00,28.8,20.9,30.41,NW,312,3.0,12.0,72,0.00,,---,0.00,186.00,VWS V14.01,2013-01-03 19:16:00,
2013-01-03 13:30:00,30.6,22.0,30.40,NW,326,3.0,9.0,70,0.00,,---,0.00,178.00,VWS V14.01,2013-01-03 19:30:00,
2013-01-03 13:55:00,29.8,21.6,30.40,NNW,332,3.0,10.0,71,0.00,,---,0.00,188.00,VWS V14.01,2013-01-03 19:55:00,
2013-01-03 14:00:00,29.7,21.5,30.40,NW,309,6.0,7.0,71,0.00,,---,0.00,185.00,VWS V14.01,2013-01-03 20:00:00,
2013-01-03 14:05:00,29.7,21.5,30.40,NW,310,5.0,8.0,71,0.00,,---,0.00,181.00,VWS V14.01,2013-01-03 20:05:00,
2013-01-03 14:10:00,29.7,21.8,30.40,NNW,328,2.0,9.0,72,0.00,,---,0.00,183.00,VWS V14.01,2013-01-03 20:10:00,
2013-01-03 14:15:00,29.8,21.6,30.40,NNW,331,7.0,9.0,71,0.00,,---,0.00,181.00,VWS V14.01,2013-01-03 20:15:00,
2013-01-03 14:20:00,30.0,21.8,30.40,NNW,339,3.0,9.0,71,0.00,,---,0.00,179.00,VWS V14.01,2013-01-03 20:20:00,
2013-01-03 14:25:00,30.3,21.7,30.40,NW,312,4.0,9.0,70,0.00,,---,0.00,178.00,VWS V14.01,2013-01-03 20:25:00,
2013-01-03 14:30:00,30.6,22.0,30.40,NW,326,2.0,3.0,70,0.00,,---,0.00,178.00,VWS V14.01,2013-01-03 20:30:00,
2013-01-03 14:35:00,30.6,22.0,30.39,NNW,327,3.0,4.0,70,0.00,,---,0.00,176.00,VWS V14.01,2013-01-03 20:35:00,
2013-01-03 14:40:00,30.6,22.0,30.39,North,360,3.0,5.0,70,0.00,,---,0.00,172.00,VWS V14.01,2013-01-03 20:40:00,
2013-01-03 14:45:00,30.4,21.8,30.39,North,355,0.0,5.0,70,0.00,,---,0.00,167.00,VWS V14.01,2013-01-03 20:45:00,
2013-01-03 14:50:00,31.0,22.4,30.39,North,355,2.0,5.0,70,0.00,,---,0.00,163.00,VWS V14.01,2013-01-03 20:50:00,
2013-01-03 14:55:00,31.2,21.9,30.39,North,355,4.0,5.0,68,0.00,,---,0.00,158.00,VWS V14.01,2013-01-03 20:55:00,
2013-01-03 15:00:00,31.2,21.9,30.40,NW,310,5.0,7.0,68,0.00,,---,0.00,156.00,VWS V14.01,2013-01-03 21:00:00,
2013-01-03 15:05:00,31.0,21.3,30.40,NNW,327,7.0,8.0,67,0.00,,---,0.00,155.00,VWS V14.01,2013-01-03 21:05:00,
2013-01-03 15:10:00,30.6,21.0,30.40,NNW,338,4.0,8.0,67,0.00,,---,0.00,153.00,VWS V14.01,2013-01-03 21:10:00,
2013-01-03 15:15:00,30.7,21.8,30.39,NNW,329,4.0,8.0,69,0.00,,---,0.00,148.00,VWS V14.01,2013-01-03 21:15:00,
2013-01-03 15:20:00,31.0,22.0,30.39,NNW,329,1.0,8.0,69,0.00,,---,0.00,142.00,VWS V14.01,2013-01-03 21:20:00,
2013-01-03 15:25:00,31.2,21.9,30.39,NNW,329,2.0,8.0,68,0.00,,---,0.00,134.00,VWS V14.01,2013-01-03 21:25:00,
2013-01-03 15:30:00,31.0,21.3,30.39,NNW,329,4.0,4.0,67,0.00,,---,0.00,134.00,VWS V14.01,2013-01-03 21:30:00,
2013-01-03 15:35:00,31.0,21.3,30.40,NNW,329,2.0,5.0,67,0.00,,---,0.00,111.00,VWS V14.01,2013-01-03 21:35:00,
2013-01-03 15:40:00,31.3,21.6,30.39,NNW,329,2.0,5.0,67,0.00,,---,0.00,83.00,VWS V14.01,2013-01-03 21:40:00,
2013-01-03 15:45:00,31.3,21.6,30.40,NNW,327,1.0,5.0,67,0.00,,---,0.00,69.00,VWS V14.01,2013-01-03 21:45:00,
2013-01-03 15:51:00,31.5,21.5,30.40,NNW,327,2.0,5.0,66,0.00,,---,0.00,51.00,VWS V14.01,2013-01-03 21:51:00,
2013-01-03 15:56:00,31.9,21.9,30.40,NNW,327,2.0,5.0,66,0.00,,---,0.00,37.00,VWS V14.01,2013-01-03 21:56:00,
2013-01-03 16:00:00,31.3,21.6,30.40,West,260,1.0,5.0,67,0.00,,---,0.00,47.00,VWS V14.01,2013-01-03 22:00:00,
2013-01-03 16:01:00,32.7,22.2,30.40,NNW,327,1.0,2.0,65,0.00,,---,0.00,33.00,VWS V14.01,2013-01-03 22:01:00,
2013-01-03 16:06:00,33.4,22.5,30.39,NNW,327,0.0,3.0,64,0.00,,---,0.00,32.00,VWS V14.01,2013-01-03 22:06:00,
2013-01-03 16:11:00,33.5,21.9,30.39,NNW,327,1.0,3.0,62,0.00,,---,0.00,39.00,VWS V14.01,2013-01-03 22:11:00,
2013-01-03 16:16:00,33.4,21.8,30.40,NNW,327,3.0,3.0,62,0.00,,---,0.00,49.00,VWS V14.01,2013-01-03 22:16:00,
2013-01-03 16:21:00,33.1,21.9,30.40,NNW,327,2.0,3.0,63,0.00,,---,0.00,86.00,VWS V14.01,2013-01-03 22:21:00,
2013-01-03 16:26:00,32.8,22.0,30.40,NW,317,4.0,4.0,64,0.00,,---,0.00,116.00,VWS V14.01,2013-01-03 22:26:00,
2013-01-03 16:30:00,29.4,20.8,30.41,WSW,248,3.0,7.0,70,0.00,,---,0.00,0.00,VWS V14.01,2013-01-03 22:30:00,
2013-01-03 16:31:00,32.5,22.1,30.39,WNW,294,2.0,2.0,65,0.00,,---,0.00,125.00,VWS V14.01,2013-01-03 22:31:00,
2013-01-03 16:36:00,32.4,22.0,30.40,WNW,290,2.0,5.0,65,0.00,,---,0.00,120.00,VWS V14.01,2013-01-03 22:36:00,
2013-01-03 16:41:00,32.2,21.8,30.40,West,265,5.0,5.0,65,0.00,,---,0.00,102.00,VWS V14.01,2013-01-03 22:41:00,
2013-01-03 16:46:00,31.8,21.4,30.40,West,261,3.0,5.0,65,0.00,,---,0.00,84.00,VWS V14.01,2013-01-03 22:46:00,
2013-01-03 16:51:00,31.3,21.3,30.40,West,261,2.0,5.0,66,0.00,,---,0.00,72.00,VWS V14.01,2013-01-03 22:51:00,
2013-01-03 16:56:00,31.5,21.5,30.40,West,261,2.0,5.0,66,0.00,,---,0.00,54.00,VWS V14.01,2013-01-03 22:56:00,
2013-01-03 17:00:00,28.2,20.4,30.41,WSW,248,2.0,5.0,72,0.00,,---,0.00,0.00,VWS V14.01,2013-01-03 23:00:00,
2013-01-03 17:01:00,31.3,21.6,30.40,West,259,3.0,4.0,67,0.00,,---,0.00,47.00,VWS V14.01,2013-01-03 23:01:00,
2013-01-03 17:06:00,31.3,21.6,30.40,West,259,2.0,4.0,67,0.00,,---,0.00,25.00,VWS V14.01,2013-01-03 23:06:00,
2013-01-03 17:11:00,30.9,21.2,30.40,West,259,2.0,4.0,67,0.00,,---,0.00,18.00,VWS V14.01,2013-01-03 23:11:00,
2013-01-03 17:16:00,30.4,21.1,30.40,West,259,2.0,4.0,68,0.00,,---,0.00,12.00,VWS V14.01,2013-01-03 23:16:00,
2013-01-03 17:21:00,30.0,21.1,30.41,West,259,3.0,4.0,69,0.00,,---,0.00,5.00,VWS V14.01,2013-01-03 23:21:00,
2013-01-03 17:26:00,29.7,21.1,30.41,WSW,252,5.0,5.0,70,0.00,,---,0.00,0.00,VWS V14.01,2013-01-03 23:26:00,
2013-01-03 17:30:00,27.6,20.4,30.41,WSW,248,2.0,4.0,74,0.00,,---,0.00,0.00,VWS V14.01,2013-01-03 23:30:00,
2013-01-03 17:31:00,29.4,20.8,30.41,WSW,248,3.0,4.0,70,0.00,,---,0.00,0.00,VWS V14.01,2013-01-03 23:31:00,
2013-01-03 17:36:00,29.3,21.1,30.41,WSW,248,4.0,5.0,71,0.00,,---,0.00,0.00,VWS V14.01,2013-01-03 23:36:00,
2013-01-03 17:41:00,29.1,20.9,30.41,WSW,248,1.0,5.0,71,0.00,,---,0.00,0.00,VWS V14.01,2013-01-03 23:41:00,
2013-01-03 17:46:00,28.8,20.6,30.41,WSW,248,1.0,5.0,71,0.00,,---,0.00,0.00,VWS V14.01,2013-01-03 23:46:00,
2013-01-03 17:51:00,28.7,20.8,30.41,WSW,248,2.0,5.0,72,0.00,,---,0.00,0.00,VWS V14.01,2013-01-03 23:51:00,
2013-01-03 17:56:00,28.4,20.5,30.41,WSW,248,2.0,5.0,72,0.00,,---,0.00,0.00,VWS V14.01,2013-01-03 23:56:00,
2013-01-03 18:00:00,25.8,19.6,30.41,WSW,238,4.0,4.0,77,0.00,,---,0.00,0.00,VWS V14.01,2013-01-04 00:00:00,
2013-01-03 18:01:00,28.2,20.7,30.41,WSW,248,1.0,3.0,73,0.00,,---,0.00,0.00,VWS V14.01,2013-01-04 00:01:00,
2013-01-03 18:06:00,28.2,20.7,30.41,WSW,248,2.0,3.0,73,0.00,,---,0.00,0.00,VWS V14.01,2013-01-04 00:06:00,
2013-01-03 18:11:00,28.1,20.6,30.41,WSW,248,2.0,3.0,73,0.00,,---,0.00,0.00,VWS V14.01,2013-01-04 00:11:00,
2013-01-03 18:16:00,27.9,20.7,30.41,WSW,248,2.0,3.0,74,0.00,,---,0.00,0.00,VWS V14.01,2013-01-04 00:16:00,
2013-01-03 18:21:00,27.8,20.6,30.41,WSW,248,3.0,4.0,74,0.00,,---,0.00,0.00,VWS V14.01,2013-01-04 00:21:00,
2013-01-03 18:26:00,27.6,20.4,30.41,WSW,248,2.0,4.0,74,0.00,,---,0.00,0.00,VWS V14.01,2013-01-04 00:26:00,
2013-01-03 18:30:00,24.4,19.1,30.41,SW,227,3.0,5.0,80,0.00,,---,0.00,0.00,VWS V14.01,2013-01-04 00:30:00,
2013-01-03 18:31:00,27.6,20.4,30.41,WSW,248,2.0,3.0,74,0.00,,---,0.00,0.00,VWS V14.01,2013-01-04 00:31:00,
2013-01-03 18:36:00,27.6,20.7,30.41,WSW,248,3.0,3.0,75,0.00,,---,0.00,0.00,VWS V14.01,2013-01-04 00:36:00,
2013-01-03 18:41:00,27.6,20.7,30.41,WSW,248,2.0,3.0,75,0.00,,---,0.00,0.00,VWS V14.01,2013-01-04 00:41:00,
2013-01-03 18:46:00,27.5,20.6,30.41,WSW,248,2.0,4.0,75,0.00,,---,0.00,0.00,VWS V14.01,2013-01-04 00:46:00,
2013-01-03 18:51:00,26.9,20.4,30.41,WSW,246,3.0,4.0,76,0.00,,---,0.00,0.00,VWS V14.01,2013-01-04 00:51:00,
2013-01-03 18:56:00,26.3,20.1,30.41,WSW,244,2.0,4.0,77,0.00,,---,0.00,0.00,VWS V14.01,2013-01-04 00:56:00,
2013-01-03 19:00:00,23.8,19.1,30.41,SW,227,3.0,5.0,82,0.00,,---,0.00,0.00,VWS V14.01,2013-01-04 01:00:00,
2013-01-03 19:01:00,25.8,19.9,30.41,SW,232,3.0,5.0,78,0.00,,---,0.00,0.00,VWS V14.01,2013-01-04 01:01:00,
2013-01-03 19:06:00,25.6,19.7,30.41,SW,228,3.0,5.0,78,0.00,,---,0.00,0.00,VWS V14.01,2013-01-04 01:06:00,
2013-01-03 19:11:00,25.4,19.5,30.41,SW,227,3.0,5.0,78,0.00,,---,0.00,0.00,VWS V14.01,2013-01-04 01:11:00,
2013-01-03 19:16:00,25.3,19.7,30.41,SW,227,2.0,5.0,79,0.00,,---,0.00,0.00,VWS V14.01,2013-01-04 01:16:00,
2013-01-03 19:21:00,24.8,19.2,30.41,SW,227,3.0,5.0,79,0.00,,---,0.00,0.00,VWS V14.01,2013-01-04 01:21:00,
2013-01-03 19:26:00,24.5,19.2,30.41,SW,227,3.0,5.0,80,0.00,,---,0.00,0.00,VWS V14.01,2013-01-04 01:26:00,
2013-01-03 19:30:00,22.9,18.5,30.40,SW,227,4.0,5.0,83,0.00,,---,0.00,0.00,VWS V14.01,2013-01-04 01:30:00,
2013-01-03 19:31:00,24.4,19.1,30.41,SW,227,4.0,4.0,80,0.00,,---,0.00,0.00,VWS V14.01,2013-01-04 01:31:00,
2013-01-03 19:36:00,24.4,19.4,30.41,SW,227,1.0,5.0,81,0.00,,---,0.00,0.00,VWS V14.01,2013-01-04 01:36:00,
2013-01-03 19:41:00,24.2,19.2,30.41,SW,227,3.0,5.0,81,0.00,,---,0.00,0.00,VWS V14.01,2013-01-04 01:41:00,
2013-01-03 19:46:00,24.1,19.1,30.41,SW,227,3.0,5.0,81,0.00,,---,0.00,0.00,VWS V14.01,2013-01-04 01:46:00,
2013-01-03 19:52:00,23.8,19.1,30.41,SW,227,3.0,5.0,82,0.00,,---,0.00,0.00,VWS V14.01,2013-01-04 01:52:00,
2013-01-03 19:57:00,23.8,19.1,30.41,SW,227,2.0,5.0,82,0.00,,---,0.00,0.00,VWS V14.01,2013-01-04 01:57:00,
2013-01-03 20:00:00,21.8,17.7,30.40,SW,227,2.0,5.0,84,0.00,,---,0.00,0.00,VWS V14.01,2013-01-04 02:00:00,
2013-01-03 20:02:00,23.8,19.1,30.41,SW,227,3.0,4.0,82,0.00,,---,0.00,0.00,VWS V14.01,2013-01-04 02:02:00,
2013-01-03 20:07:00,23.8,19.1,30.41,SW,227,4.0,4.0,82,0.00,,---,0.00,0.00,VWS V14.01,2013-01-04 02:07:00,
2013-01-03 20:12:00,23.8,19.1,30.41,SW,227,3.0,4.0,82,0.00,,---,0.00,0.00,VWS V14.01,2013-01-04 02:12:00,
2013-01-03 20:17:00,23.6,18.9,30.40,SW,227,4.0,4.0,82,0.00,,---,0.00,0.00,VWS V14.01,2013-01-04 02:17:00,
2013-01-03 20:22:00,23.3,18.6,30.40,SW,227,3.0,4.0,82,0.00,,---,0.00,0.00,VWS V14.01,2013-01-04 02:22:00,
2013-01-03 20:27:00,23.0,18.6,30.40,SW,227,4.0,5.0,83,0.00,,---,0.00,0.00,VWS V14.01,2013-01-04 02:27:00,
2013-01-03 20:30:00,20.2,16.4,30.40,SW,227,1.0,4.0,85,0.00,,---,0.00,0.00,VWS V14.01,2013-01-04 02:30:00,
2013-01-03 20:32:00,22.9,18.5,30.40,SW,227,3.0,5.0,83,0.00,,---,0.00,0.00,VWS V14.01,2013-01-04 02:32:00,
2013-01-03 20:37:00,22.7,18.3,30.41,SW,227,3.0,5.0,83,0.00,,---,0.00,0.00,VWS V14.01,2013-01-04 02:37:00,
2013-01-03 20:42:00,22.5,18.1,30.40,SW,227,3.0,5.0,83,0.00,,---,0.00,0.00,VWS V14.01,2013-01-04 02:42:00,
2013-01-03 20:47:00,22.2,18.1,30.40,SW,227,4.0,5.0,84,0.00,,---,0.00,0.00,VWS V14.01,2013-01-04 02:47:00,
2013-01-03 20:52:00,22.1,18.0,30.40,SW,227,1.0,5.0,84,0.00,,---,0.00,0.00,VWS V14.01,2013-01-04 02:52:00,
2013-01-03 20:57:00,21.9,17.8,30.40,SW,227,2.0,5.0,84,0.00,,---,0.00,0.00,VWS V14.01,2013-01-04 02:57:00,
2013-01-03 21:00:00,19.7,16.2,30.41,SW,227,1.0,4.0,86,0.00,,---,0.00,0.00,VWS V14.01,2013-01-04 03:00:00,
2013-01-03 21:02:00,21.8,17.7,30.40,SW,227,3.0,3.0,84,0.00,,---,0.00,0.00,VWS V14.01,2013-01-04 03:02:00,
2013-01-03 21:07:00,21.4,17.3,30.40,SW,227,3.0,3.0,84,0.00,,---,0.00,0.00,VWS V14.01,2013-01-04 03:07:00,
2013-01-03 21:12:00,21.1,17.3,30.40,SW,227,3.0,4.0,85,0.00,,---,0.00,0.00,VWS V14.01,2013-01-04 03:12:00,
2013-01-03 21:17:00,21.0,17.2,30.40,SW,227,2.0,4.0,85,0.00,,---,0.00,0.00,VWS V14.01,2013-01-04 03:17:00,
2013-01-03 21:22:00,20.6,16.8,30.40,SW,227,2.0,4.0,85,0.00,,---,0.00,0.00,VWS V14.01,2013-01-04 03:22:00,
2013-01-03 21:27:00,20.3,16.5,30.40,SW,227,2.0,4.0,85,0.00,,---,0.00,0.00,VWS V14.01,2013-01-04 03:27:00,
2013-01-03 21:30:00,18.9,15.4,30.41,SW,227,3.0,4.0,86,0.00,,---,0.00,0.00,VWS V14.01,2013-01-04 03:30:00,
2013-01-03 21:32:00,19.9,16.1,30.40,SW,227,2.0,3.0,85,0.00,,---,0.00,0.00,VWS V14.01,2013-01-04 03:32:00,
2013-01-03 21:37:00,19.7,15.9,30.40,SW,227,3.0,4.0,85,0.00,,---,0.00,0.00,VWS V14.01,2013-01-04 03:37:00,
2013-01-03 21:42:00,19.7,15.9,30.40,SW,227,1.0,4.0,85,0.00,,---,0.00,0.00,VWS V14.01,2013-01-04 03:42:00,
2013-01-03 21:47:00,19.5,16.0,30.40,SW,227,2.0,4.0,86,0.00,,---,0.00,0.00,VWS V14.01,2013-01-04 03:47:00,
2013-01-03 21:52:00,19.5,16.0,30.40,SW,227,1.0,4.0,86,0.00,,---,0.00,0.00,VWS V14.01,2013-01-04 03:52:00,
2013-01-03 21:57:00,19.9,16.4,30.41,SW,227,2.0,4.0,86,0.00,,---,0.00,0.00,VWS V14.01,2013-01-04 03:57:00,
2013-01-03 22:00:00,17.5,14.0,30.40,SW,227,3.0,5.0,86,0.00,,---,0.00,0.00,VWS V14.01,2013-01-04 04:00:00,
2013-01-03 22:02:00,19.7,16.2,30.41,SW,227,1.0,2.0,86,0.00,,---,0.00,0.00,VWS V14.01,2013-01-04 04:02:00,
2013-01-03 22:07:00,19.5,16.0,30.41,SW,227,3.0,3.0,86,0.00,,---,0.00,0.00,VWS V14.01,2013-01-04 04:07:00,
2013-01-03 22:12:00,19.5,16.0,30.41,SW,227,2.0,3.0,86,0.00,,---,0.00,0.00,VWS V14.01,2013-01-04 04:12:00,
2013-01-03 22:17:00,19.4,15.9,30.41,SW,227,2.0,3.0,86,0.00,,---,0.00,0.00,VWS V14.01,2013-01-04 04:17:00,
2013-01-03 22:22:00,19.1,15.6,30.41,SW,227,2.0,3.0,86,0.00,,---,0.00,0.00,VWS V14.01,2013-01-04 04:22:00,
2013-01-03 22:27:00,18.9,15.4,30.41,SW,227,2.0,4.0,86,0.00,,---,0.00,0.00,VWS V14.01,2013-01-04 04:27:00,
2013-01-03 22:30:00,16.2,12.5,30.40,SW,227,3.0,4.0,85,0.00,,---,0.00,0.00,VWS V14.01,2013-01-04 04:30:00,
2013-01-03 22:32:00,18.6,15.1,30.41,SW,227,2.0,3.0,86,0.00,,---,0.00,0.00,VWS V14.01,2013-01-04 04:32:00,
2013-01-03 22:37:00,18.3,14.8,30.40,SW,227,2.0,3.0,86,0.00,,---,0.00,0.00,VWS V14.01,2013-01-04 04:37:00,
2013-01-03 22:42:00,17.8,14.1,30.40,SW,227,3.0,4.0,85,0.00,,---,0.00,0.00,VWS V14.01,2013-01-04 04:42:00,
2013-01-03 22:47:00,17.7,14.2,30.41,SW,227,3.0,4.0,86,0.00,,---,0.00,0.00,VWS V14.01,2013-01-04 04:47:00,
2013-01-03 22:52:00,17.5,14.0,30.40,SW,227,3.0,5.0,86,0.00,,---,0.00,0.00,VWS V14.01,2013-01-04 04:52:00,
2013-01-03 22:57:00,17.5,14.0,30.40,SW,227,3.0,5.0,86,0.00,,---,0.00,0.00,VWS V14.01,2013-01-04 04:57:00,
2013-01-03 23:00:00,16.2,12.5,30.39,SW,227,1.0,4.0,85,0.00,,---,0.00,0.00,VWS V14.01,2013-01-04 05:00:00,
2013-01-03 23:01:00,17.5,14.0,30.40,SW,227,3.0,3.0,86,0.00,,---,0.00,0.00,VWS V14.01,2013-01-04 05:01:00,
2013-01-03 23:02:00,17.5,14.0,30.40,SW,227,3.0,3.0,86,0.00,,---,0.00,0.00,VWS V14.01,2013-01-04 05:02:00,
2013-01-03 23:05:00,17.0,13.5,30.40,SW,227,4.0,4.0,86,0.00,,---,0.00,0.00,VWS V14.01,2013-01-04 05:05:00,
2013-01-03 23:10:00,16.9,13.4,30.40,SW,227,2.0,4.0,86,0.00,,---,0.00,0.00,VWS V14.01,2013-01-04 05:10:00,
2013-01-03 23:15:00,16.7,13.2,30.40,SW,227,3.0,4.0,86,0.00,,---,0.00,0.00,VWS V14.01,2013-01-04 05:15:00,
2013-01-03 23:20:00,16.7,13.2,30.40,SW,227,3.0,4.0,86,0.00,,---,0.00,0.00,VWS V14.01,2013-01-04 05:20:00,
2013-01-03 23:25:00,16.4,12.7,30.40,SW,227,2.0,4.0,85,0.00,,---,0.00,0.00,VWS V14.01,2013-01-04 05:25:00,
2013-01-03 23:30:00,16.2,12.5,30.40,SW,227,3.0,4.0,85,0.00,,---,0.00,0.00,VWS V14.01,2013-01-04 05:30:00,
2013-01-03 23:35:00,16.1,12.4,30.40,SW,227,3.0,3.0,85,0.00,,---,0.00,0.00,VWS V14.01,2013-01-04 05:35:00,
2013-01-03 23:40:00,16.4,12.9,30.40,SW,227,1.0,4.0,86,0.00,,---,0.00,0.00,VWS V14.01,2013-01-04 05:40:00,
2013-01-03 23:45:00,16.5,13.1,30.40,SW,227,2.0,4.0,86,0.00,,---,0.00,0.00,VWS V14.01,2013-01-04 05:45:00,
2013-01-03 23:50:00,16.5,12.8,30.39,SW,227,4.0,4.0,85,0.00,,---,0.00,0.00,VWS V14.01,2013-01-04 05:50:00,
2013-01-03 23:55:00,16.2,12.5,30.39,SW,227,2.0,4.0,85,0.00,,---,0.00,0.00,VWS V14.01,2013-01-04 05:55:00,